Meteo Giornale » Osservazioni meteo Italia » Bergamo-Orio Al Serio

ore: 05:50 - Osservazioni Meteo Bergamo-Orio Al Serio
Lat. 45° 40' N Lon. 9° 42' E Alt. 238 metri s.l.m.

coperto_pioggia Europe/Rome

21 °C

Pioggia Debole

Temp. 24 Ore

21 °C

29 °C

Nord

5.5 Km/h

Dew point 18 °C

Umidità 82 %

Visibilità  10 Km

Il sole sorge alle ore 06:23

Il sole tramonta alle ore 20:26

Data e Ora Cielo e Fenomeni T °C DP °C Um. % Pres. hPa Vis. km Vento km/h
Oggi h: 05:50 coperto_pioggia Pioggia Debole 21 18 82 1011 10 N 5.5
Oggi h: 05:20 molto_nuvoloso Molto Nuvoloso 21 18 82 1011 10 N/NE 7.4
Oggi h: 04:50 coperto_pioggia Pioggia Debole 21 18 82 1012 10 N 5.5
Oggi h: 04:20 molto_nuvoloso Molto Nuvoloso 21 18 82 1012 9 E/NE 9.3
Oggi h: 03:50 coperto_pioggia Pioggia Debole 21 18 82 1013 8 N 5.5
Oggi h: 03:20 molto_nuvoloso Molto Nuvoloso 21 18 82 1013 10 N 3.7
Oggi h: 02:50 molto_nuvoloso Molto Nuvoloso 21 18 82 1013 10 N 1.8
Oggi h: 02:20 molto_nuvoloso Molto Nuvoloso 21 18 82 1013 10 N 5.5
Oggi h: 01:50 molto_nuvoloso Molto Nuvoloso 21 20 94 1013 10 N 1.8
Oggi h: 01:20 molto_nuvoloso Molto Nuvoloso 21 20 94 1013 10 N 3.7
Oggi h: 00:50 molto_nuvoloso Molto Nuvoloso 21 20 94 1014 10 E/SE 7.4
Oggi h: 00:20 molto_nuvoloso Molto Nuvoloso 22 20 88 1014 10 S/SE 9.3
Ieri h: 23:50 nuvoloso Nuvoloso 22 19 83 1014 10 SE 13
Ieri h: 23:20 nuvoloso Nuvoloso 22 19 83 1014 10 N 5.5
Ieri h: 22:50 nuvoloso Nuvoloso 22 20 88 1014 10 N 3.7
Ieri h: 22:20 sereno Sereno 22 19 83 1013 10 N 1.8
Ieri h: 21:50 sereno Sereno 22 20 88 1013 10 N 5.5
Ieri h: 21:20 sereno Sereno 22 20 88 1013 10 N 3.7
Ieri h: 20:50 sereno Sereno 23 20 83 1012 10 N 5.5
Ieri h: 20:20 sereno Sereno 24 20 78 1012 10 N 3.7
Ieri h: 19:50 nuvoloso Nuvoloso 25 21 78 1012 10 N 3.7
Ieri h: 19:20 coperto_pioggia Pioggia Debole 24 21 83 1012 10 E 7.4
Ieri h: 18:50 coperto_pioggia Pioggia Debole 25 20 73 1013 10 S 7.4
Ieri h: 18:20 coperto_pioggia Pioggia Debole 26 20 69 1014 10 SO 13
Ieri h: 17:50 coperto_pioggia Pioggia Debole 27 19 61 1013 10 SO 13
Ieri h: 17:20 nuvoloso Nuvoloso 28 18 54 1013 10 N 1.8
Ieri h: 16:50 nuvoloso Nuvoloso 28 18 54 1013 10 N 5.5
Ieri h: 16:20 nuvoloso Nuvoloso 28 17 51 1014 10 S 9.3
Ieri h: 15:50 sereno Sereno 28 17 51 1014 10 S 11.1
Ieri h: 15:20 sereno Sereno 28 17 51 1014 10 S/SE 7.4
Ieri h: 14:50 sereno Sereno 28 17 51 1014 10 SE 7.4
Ieri h: 14:20 sereno Sereno 29 18 51 1014 10 S 11.1
Ieri h: 13:50 sereno Sereno 28 18 54 1014 10 S 9.3
Ieri h: 13:20 sereno Sereno 28 18 54 1014 10 S 7.4
Ieri h: 12:50 sereno Sereno 27 17 54 1014 10 N 5.5
Ieri h: 12:20 nuvoloso Nuvoloso 27 18 57 1014 10 N 5.5
Ieri h: 11:50 nuvoloso Nuvoloso 26 17 57 1014 10 N 5.5
Ieri h: 11:20 nuvoloso Nuvoloso 26 18 61 1014 10 S/SO 7.4
Ieri h: 10:50 nuvoloso Nuvoloso 26 18 61 1014 10 N 5.5
Ieri h: 10:20 nuvoloso Nuvoloso 25 17 61 1014 10 S/SE 9.3
Ieri h: 09:50 nuvoloso Nuvoloso 25 18 65 1013 10 SE 7.4
Ieri h: 09:20 nuvoloso Nuvoloso 25 17 61 1014 10 N 3.7
Ieri h: 08:50 nuvoloso Nuvoloso 24 17 64 1014 10 N 3.7
Ieri h: 08:20 nuvoloso Nuvoloso 23 17 68 1014 10 N 3.7
Ieri h: 07:50 nuvoloso Nuvoloso 23 18 73 1014 10 N 3.7
Ieri h: 07:20 nuvoloso Nuvoloso 21 17 77 1013 10 N 3.7
Ieri h: 06:50 molto_nuvoloso Molto Nuvoloso 21 16 73 1013 10 N 3.7